Regional Weather Roundup
Issued by NWS

Home | Current Version | Previous Version | Text Only | Print | Product List | Glossary On
Versions: 1 2 3 4 5 6 7 8 9 10 11 12 13 14 15 16 17 18 19 20 21 22 23 24 25 26 27 28 29 30 31 32 33 34 35 36 37 38 39 40 41 42 43 44 45 46 47 48 49 50
000
ASUS43 KFSD 240802
RWRSD

WEATHER ROUNDUP FOR SOUTH DAKOTA
NATIONAL WEATHER SERVICE SIOUX FALLS SD
300 AM CDT TUE OCT 24 2017

NOTE: "FAIR" INDICATES FEW OR NO CLOUDS BELOW 12,000 FEET WITH NO
SIGNIFICANT WEATHER AND/OR OBSTRUCTIONS TO VISIBILITY.


SDZ001>005-009-010-012>017-240900-
NORTHWEST AND NORTH CENTRAL SOUTH DAKOTA

CITY           SKY/WX    TMP DP  RH WIND       PRES   REMARKS
BUFFALO          N/A     39  24  55 NW16      30.37R
FAITH            N/A     36  26  67 NW14      30.38F
MOBRIDGE       PTCLDY    41  31  67 NW12      30.29R
$$

SDZ012>016-024>037-041>051-057-063-072>074-240900-
SOUTHWEST AND SOUTH CENTRAL SOUTH DAKOTA

CITY           SKY/WX    TMP DP  RH WIND       PRES   REMARKS
RAPID CTY ARPT CLEAR     43  22  43 NW20      30.44F
PIERRE         CLEAR     43  30  60 NW16      30.30S
CUSTER         CLEAR     36  16  44 N9G20     30.43F
ELLSWORTH AFB  CLEAR     43  22  43 NW17      30.43F
PHILIP         CLEAR     40  27  59 NW13      30.38F
PINE RIDGE     CLEAR     36  22  56 NW7       30.45S
SPEARFISH      FAIR      41  21  45 W10       30.49R
WINNER         FAIR      42  29  59 NW16      30.31R
$$

SDZ004>011-016>023-039-040-240900-
NORTHEAST SOUTH DAKOTA

CITY           SKY/WX    TMP DP  RH WIND       PRES   REMARKS
ABERDEEN       PTCLDY    35  29  78 NW10      30.22R WCI  27
WATERTOWN      CLEAR     34  28  79 N26G33    30.11R WCI  21
BROOKINGS      CLEAR     36  27  69 N25G32    30.06F
SISSETON         N/A     34  29  82 NW21      30.12S WCI  22
$$

SDZ017-020-022-023-036>040-048>070-240900-
SOUTHEAST SOUTH DAKOTA

CITY           SKY/WX    TMP DP  RH WIND       PRES   REMARKS
SIOUX FALLS    CLEAR     42  32  67 NW23G32   30.06F
HURON          CLEAR     41  30  65 NW21G32   30.20R
CHAMBERLAIN    CLEAR     46  34  62 NW20G30   30.27R
MITCHELL       CLEAR     43  30  60 NW25G33   30.19R
YANKTON        CLEAR     44  31  60 NW24G32   30.13F
$$

ABBREVIATIONS USED IN REMARKS
   TC - TEMPERATURE IN CELSIUS
  WCI - WIND CHILL INDEX
   HX - HEAT INDEX
  VSB - VISIBILITY





USA.gov is the U.S. government's official web portal to all federal, state and local government web resources and services.